Aeroporto :
LOGIN :

Iscrizione | Disclaimer

   EN    FR    IT 

 










Sommario :    VFR   VFR Marginale   IFR   IFR Intensivo   IFR Molto Intensivo
Visibilità : 
Base nubi : 
>= 8 km
>= 3000ft
5 / 8 km
1000 / 3000 ft
1500m / 5 km
500 / 1000 ft
800 / 1500m
200 / 500 ft
< 800m
< 200 ft
Simboli :   Temporali  Nebbia  Neve Forte  Precipitazioni Forti  Vento > 20 kt
SIGMETs :   Varie  Temporali  Ghiacco  Turbolenza  Onda orograficha  Ceneri Vulcaniche






- Altitudine del aeroporto : 106 ft
- Codice IATA : NRN


EDLV - Weeze

ULTIMO METAR :
  • 220950Z 02007KT 330V050 9999 SCT035 17/10 Q1016

METARs OBSOLETI :
  • 220920Z 03006KT 350V100 9999 BKN036 16/10 Q1016
  • 220850Z 05005KT 360V090 9999 BKN036 16/10 Q1016
  • 220820Z 02005KT 340V090 9999 SCT019 BKN033 15/11 Q1016
  • 220750Z 02004KT 330V090 9999 BKN018 15/11 Q1016
  • 220720Z 04005KT 340V100 9999 BKN018 15/11 Q1016

TAF TAF EDLV
Valido dal 22 a 06 ore il 23 a 06 ore UTC


220500Z 2206/2306 02006KT 9999 BKN035
PROB30
TEMPO 2219/2222 RA



MetMap, La meteo Aeronautica in un colpo d'occhio ! - Copyright ORBIFLY Dicembre 2007 - Disclaimer

ORBIFLY MET'MAP TEAM :

Programmazione e sviluppo : Alexandra Zaïnal
Concezione : Baudouin d'Aumeries
Aiuto per la programmazione : Marc-Olivier Méhu
Supporto tecnico e logistico : Manuel Goepfert
Aiuto per la traduzione : Arnaldo La Scala

Contatto : metmap@orbifly.com




FONTI E CREDITI :

   NOAA